Location: Newark
(11.2914°S, 14.4718°E)
Time: 15:07:44
(UTC+00:00)

Vanguard 2 - Pass Details

Date: 19 September 2019
Orbit: 554 x 2937 km, 32.9° (Epoch: 20 October)

Event Time Altitude Azimuth Distance (km) Brightness Sun altitude
Rises 20:04:32 0° 233° (SW) 5,740 12.6 -46.3°
Reaches altitude 10° 20:07:59 10° 229° (SW) 4,992 12.1 -47.2°
Enters shadow 20:20:36 58° 185° (S) 3,164 10.4 -50.2°
